www.pogodaiklimat.ru

Погода и климат >> Архив погоды >> Россия >> Якутия >> Томпо


АРХИВ ПОГОДЫ в Томпо

Время (UTC), дата Ветер
(напр.,м/с)
 
Видим.   Явления Облачность Т
(С)
Тd
(С)
f
(%)
Тe
(С)
Тes
(С)
Комфортность P
(гПа)
Po
(гПа)
Тmin
(С)
Tmax
(С)
R
(мм)
R24
(мм)
S
(см)
15 14.08 штиль 0 50 км 1/1 1000 м
[Sc]
+6.4 +4.3 86 +5 +5 1013.5 965.1
18 14.08 штиль 0 50 км ясно +4.0 +3.0 93 +3 +3 1014.9 966.1
21 14.08 штиль 0 50 км 9/9 1000 м
[Sc]
+8.2 +5.8 85 +7 +7 1015.6 967.5 +4.0
00 15.08 С 1 50 км 8/5 1000 м
[Sc Ci fib]
+13.1 +5.9 62 +13 +16 1015.0 967.7
03 15.08 штиль 0 50 км 8/8 1000 м
[Sc]
+21.6 +8.1 42 +23 +25 комфорт 1012.3 966.6
06 15.08 штиль 0 50 км 6/1 600 м
[Cu hum Ci fib]
+25.1 +7.6 33 +25 +31 комфорт 1010.7 965.5
09 15.08 штиль 0 50 км 3/1 600 м
[Cu hum Ci fib]
+26.3 +6.2 28 +26 +27 жарко 1010.2 965.1 +27.5
12 15.08 штиль 0 50 км 1/1 1000 м
[Sc diur, vesp]
+13.7 +6.9 63 +13 +13 1013.6 966.6
15 15.08 штиль 0 50 км 1/1 1000 м
[Sc]
+9.7 +6.0 78 +9 +9 1016.2 968.4
18 15.08 штиль 0 50 км 1/1 1000 м
[Sc]
+3.9 +2.4 90 +3 +3 1018.9 969.9
21 15.08 штиль 0 50 км 1/1 1000 м
[Sc]
+4.1 +3.6 97 +3 +4 1020.4 971.3 +3.8
00 16.08 С 1 50 км ясно +13.2 +6.1 62 +14 +20 1018.3 970.9
03 16.08 штиль 0 50 км ясно +24.1 +7.4 34 +24 +36 комфорт 1015.2 969.6
06 16.08 Ю 3 50 км 1/1 600 м
[Cu hum]
+26.9 +5.4 25 +26 +30 жарко 1013.3 968.2
09 16.08 ЮЗ 1 50 км 8/3 600 м
[Cb cap Ci fib]
+24.7 +5.8 30 +25 +25 комфорт 1014.1 968.7 +27.3
12 16.08 ЮВ 1 50 км 10/10 600 м
[Cb cap]
+19.3 +6.3 43 +21 +21 комфорт 1016.9 970.5
15 16.08 штиль 0 50 км 10/10 600 м
[Cb cap]
+13.9 +7.4 65 +14 +14 1018.3 971.0
18 16.08 штиль 0 50 км 10/10 1000 м
[Sc]
+10.7 +7.4 80 +10 +10 1019.4 971.6
21 16.08 штиль 0 50 км 10/0
[Ac As]
+11.1 +8.0 81 +11 +11 1020.2 972.4 +10.0
00 17.08 штиль 0 50 км 10/0
[Ac As]
+15.0 +8.0 63 +15 +17 1019.2 972.0
03 17.08 штиль 0 50 км 9/0
[Ac As Cs]
+21.4 +9.0 45 +23 +30 комфорт 1017.0 971.0
06 17.08 штиль 0 50 км 3/0
[Cc]
+25.2 +7.2 32 +25 +32 комфорт 1014.9 969.4
09 17.08 штиль 0 50 км 3/0
[Ci fib]
+25.8 +7.6 31 +26 +27 жарко 1013.8 968.6 +27.0
12 17.08 штиль 0 50 км 3/0
[Ci fib]
+14.3 +8.1 66 +14 +14 1017.1 970.0
15 17.08 штиль 0 50 км 8/0
[Ci fib]
+9.5 +6.7 83 +9 +9 1018.8 970.9
18 17.08 штиль 0 50 км 10/0
[Cs]
+7.9 +5.7 86 +7 +7 1020.2 971.9
21 17.08 штиль 0 50 км 10/0
[Cs]
+8.1 +6.1 87 +7 +8 1020.8 972.5 +6.1
00 18.08 штиль 0 50 км 10/0
[As trans]
+13.1 +8.5 74 +13 +16 1019.8 972.3
03 18.08 штиль 0 50 км 10/0
[As trans]
+20.3 +10.4 53 +22 +26 комфорт 1017.2 971.0
06 18.08 штиль 0 50 км 10/0
[As trans]
+21.9 +10.9 50 +24 +27 комфорт 1015.6 969.7
09 18.08 Ю 1 50 км 10/0
[As trans]
+21.7 +8.5 43 +23 +23 комфорт 1015.0 969.1 +22.6
12 18.08 штиль 0 50 км 10/0
[As op]
+17.0 +8.7 58 +17 +17 1016.5 969.8
15 18.08 штиль 0 50 км 9/0
[As op]
+9.0 +6.2 83 +8 +8 1018.5 970.4
18 18.08 штиль 0 50 км 10/0
[As op]
+6.9 +4.6 85 +6 +6 1019.1 970.7
21 18.08 штиль 0 50 км 6/0
[Cs]
+7.8 +6.0 88 +7 +8 1019.7 971.4 +5.8
00 19.08 штиль 0 50 км 6/0
[Ac As]
+14.9 +8.4 65 +15 +19 1018.9 971.7
03 19.08 Ю 2 10 км дым 8/0
[Ci fib]
+21.2 +5.3 35 +22 +29 комфорт 1017.3 971.1
06 19.08 З 1 10 км дым 10/0
[Cs]
+21.1 +6.6 39 +22 +27 комфорт 1017.3 971.1
09 19.08 Ю 3 50 км 9/3 1000 м
[Sc Ci fib]
+19.1 +5.7 41 +20 +20 1018.4 971.9 +22.3
12 19.08 ЮВ 1 50 км 9/3 1000 м
[Sc Ci fib]
+12.8 +6.5 65 +13 +13 1020.3 972.8
15 19.08 штиль 0 50 км 9/0
[Ci fib]
+6.5 +3.7 82 +6 +6 1022.1 973.3
18 19.08 штиль 0 50 км 3/0
[Ci fib]
+4.8 +4.1 95 +4 +4 1023.0 974.0
21 19.08 СЗ 1 50 км 9/9 1000 м
[Sc]
+5.4 +4.7 95 +4 +4 1023.0 974.0 +3.6
00 20.08 С 1 50 км 3/0
[Cc]
+12.9 +6.2 64 +13 +19 1020.2 972.7
03 20.08 штиль 0 50 км 10/10 1000 м
[Sc]
+18.5 +7.5 49 +19 +19 1018.0 971.5
06 20.08 Ю 1 50 км 10/10 1000 м
[Sc]
+18.5 +7.3 48 +20 +20 1018.0 971.5
09 20.08 Ю 1 50 км 10/10 1000 м
[Sc]
+18.0 +7.3 50 +19 +19 1018.9 972.2 +19.0
12 20.08 штиль 0 50 км 10/10 1000 м
[Sc]
+14.2 +7.8 65 +14 +14 1020.2 972.9
15 20.08 штиль 0 50 км 10/10 1000 м
[Sc]
+11.8 +7.9 77 +11 +11 1020.9 973.1
18 20.08 штиль 0 50 км 10/10 1000 м
[Sc]
+9.9 +7.2 83 +9 +9 1021.8 973.7
21 20.08 штиль 0 50 км 10/0
[As op]
+11.8 +10.0 89 +11 +11 1021.5 973.7 +9.5
00 21.08 штиль 0 50 км 10/10 1000 м
[Sc As op]
+13.5 +9.0 74 +13 +13 1021.0 973.6
03 21.08 С 1 50 км 8/3 1000 м
[Sc Ac trans Ci fib]
+17.9 +9.8 59 +19 +23 1019.3 972.6
06 21.08 штиль 0 50 км 9/3 1000 м
[Sc Cs]
+22.2 +8.2 41 +23 +27 комфорт 1017.1 971.1
09 21.08 штиль 0 50 км 9/4 600 м
[Cb cap Ci fib]
+20.4 +10.3 52 +22 +22 комфорт 1016.7 970.6 +22.5
12 21.08 штиль 0 50 км 9/4 1000 м
[Sc Ci fib]
+12.5 +11.2 92 +12 +12 1018.2 970.8

 

Местоположение метеостанции Томпо (Якутия, Россия): широта 63.95 долгота 135.80 высота над уровнем моря 402 м.

В архиве по умолчанию представлена погода в Томпо за последнюю неделю. Архивные данные за месяц целиком и за предыдущие месяцы, начиная с января 2011 года, Вы можете получить, выбрав интересующий диапазон дат из раскрывающегося списка и нажав кнопку "Ввод!".


*Определитесь, кто Вы:
робот инопланетянин человек

Внимание! Время в таблицах - всемирное. Для получения местного времени необходимо прибавить поправку, которая равна 9 ч.

Смотрите также архив погоды в соседних городах и на ближайших метеорологических станциях:

Погода в Теплом Ключе (Якутия, Россия) (139 км)
Погода в Крест-Хальджае (Якутия, Россия) (144 км)
Погода в Иэме (Якутия, Россия) (150 км)
Погода в Верхоянском Перевозе (Якутия, Россия) (200 км)
Погода в Восточной (Якутия, Россия) (204 км)
Погода в Ытык-Кюёле (Якутия, Россия) (210 км)
Погода в Охотском Перевозе (Якутия, Россия) (232 км)
Погода в Чурапче (Якутия, Россия) (268 км)
Погода в Сеген-Кюеле (Якутия, Россия) (268 км)
Погода в Юртах (Якутия, Россия) (293 км)

Пояснения к столбцам:

Ветер - указаны скорость ветра в м/с - средняя за 10 мин, порывы в срок и между сроками (в фигурных скобках) и направление, откуда дует ветер: С - северный, СВ - северо-восточный, В - восточный, ЮВ - юго-восточный, Ю - южный, ЮЗ - юго-западный, З - западный, СЗ - северо-западный.
Видимость - горизонтальная дальность видимости в метрах или километрах. При видимости от 1 до 10 км при отсутствии осадков обычно наблюдается дымка, при ухудшении видимости до 1 км и менее - туман. В сухую погоду видимость может ухудшаться дымом, пылью или мглою.
Явления - указаны атмосферные явления, наблюдавшиеся в срок или в последний час перед сроком; фигурными скобками обозначены явления, наблюдавшиеся между сроками (за 1-3 часа до срока); квадратными скобками обозначены град или гололедные отложения с указанием их диаметра в мм.
Облачность - указаны через наклонную черту общая и нижняя облачность в баллах и высота нижней границы облаков в метрах; квадратными скобками обозначены формы облаков: Ci - перистые, Cs - перисто-слоистые, Cc - перисто-кучевые, Ac - высококучевые, As - высокослоистые, Sc - слоисто-кучевые, Ns - слоисто-дождевые, Cu - кучевые, Cb - кучево-дождевые. Подробнее классификацию облаков см. в Атласе облаков (PDF).
T - Температура воздуха - температура, измеренная на высоте 2 м над землей.
Td - Температура точки росы - температура, при понижении до которой содержащийся в воздухе водяной пар достигнет насыщения.
f - Относительная влажность воздуха - влажноcть воздуха, измеренная на высоте 2 м над землей.
Te - Эффективная температура - температура, которую ощущает одетый по сезону человек в тени. Характеристика душности погоды. При расчете учитывается влияние влажности воздуха и скорости ветра на теплоощущения человека.
Tes - Эффективная температура на солнце - температура, которую ощущает человек, с поправкой на солнечный нагрев. Характеристика знойности погоды. Зависит от высоты солнца над горизонтом, облачности и скорости ветра. Ночью, в пасмурную погоду, а также при ветре 12 м/с и более поправка равна нулю.
P - Атмосферное давление - приведенное к уровню моря атмосферное давление.
Po - Атмосферное давление - измеренное на уровне метеостанции атмосферное давление.
Tmin - Минимальная температура - минимум температуры воздуха на высоте 2 м над землей.
Tmax - Максимальная температура - максимум температуры воздуха на высоте 2 м над землей.
R - Количество осадков - Количество выпавших осадков за период времени, мм. При наведении курсора мыши на число - период времени, за который выпало указанное количество осадков.
R24 - Количество осадков - Количество выпавших осадков за 24 часа, мм.
S - Снежный покров - Высота снежного покрова, см. При наведении курсора мыши на число - состояние снежного покрова и степень покрытия местности в баллах.